Location: �clusier
(49.9361°N, 2.7869°E)
Time: 21:47:02
(UTC+00:00)

Cosmos 2219 Rocket - Pass Details

Date: 16 June 2021
Orbit: 829 x 845 km, 71.0° (Epoch: 02 August)

Event Time Altitude Azimuth Distance (km) Brightness Sun altitude
Exits shadow 21:24:26 12° 159° (SSE) 2,327 3.9 -9.9°
Maximum altitude 21:28:45 29° 104° (ESE) 1,522 3.2 -10.3°
Drops below altitude 10° 21:33:31 10° 47° (NE) 2,474 4.8 -10.7°
Sets 21:36:15 0° 36° (NE) 3,413 5.7 -10.9°
